Location: Newark
(25.0000°N, 73.5000°E)
Time: 18:41:29
(UTC+00:00)

Transit 2A Rocket - Visible Passes

Search period start: 01 August 2021 00:00
Search period end: 11 August 2021 00:00
Orbit: 589 x 913 km, 66.7° (Epoch: 01 August)

Date Brightness Start Highest point End Pass type
(mag) Time Alt. Az. Time Alt. Az. Time Alt. Az.
01 Aug 7.8 17:37:10 10° N 17:37:56 13° NNE 17:37:56 13° NNE visible
02 Aug 8.1 18:35:51 10° NNW 18:36:08 11° NNW 18:36:08 11° NNW visible
03 Aug 7.7 17:53:20 10° NNW 17:54:29 16° N 17:54:29 16° N visible
04 Aug 7.4 17:11:12 10° N 17:12:53 18° N 17:12:53 18° N visible
05 Aug 7.4 16:29:37 10° NNE 16:31:20 15° NNE 16:31:20 15° NNE visible
05 Aug 7.9 18:10:37 10° NW 18:11:13 13° NW 18:11:13 13° NW visible
06 Aug 7.4 17:27:50 10° NNW 17:29:42 22° NNW 17:29:42 22° NNW visible
07 Aug 6.9 16:45:27 10° N 16:48:15 27° N 16:48:15 27° N visible
08 Aug 6.8 16:03:28 10° N 16:06:50 24° NE 16:06:50 24° NE visible
08 Aug 7.8 17:45:34 10° NW 17:46:44 16° NW 17:46:44 16° NW visible
09 Aug 7.1 15:22:14 10° NNE 15:25:28 15° ENE 15:25:28 15° ENE visible
09 Aug 6.9 17:02:31 10° NNW 17:05:22 30° NW 17:05:22 30° NW visible
10 Aug 6.0 16:19:53 10° NNW 16:24:04 47° N 16:24:04 47° N visible
